Groton, CT

3:35 AM EDT on April 20, 2018 (GMT -0400)
Groton-New London

Weather History for KGON - December, 2013

Change the Weather History Date:

Tuesday, December 24, 2013

  Actual Average Record
Temperature  
Mean Temperature 34 °F -  
Max Temperature 39 °F 38 °F 64 °F (2015)
Min Temperature 28 °F 21 °F 0 °F (1989)
Degree Days  
Heating Degree Days 30    
Moisture  
Dew Point 20 °F    
Average Humidity 55    
Maximum Humidity 69    
Minimum Humidity 41    
Precipitation  
Precipitation 0.00 in - - ()
Sea Level Pressure  
Sea Level Pressure 30.12 in    
Wind  
Wind Speed 13 mph (NNW)    
Max Wind Speed 20 mph    
Max Gust Speed 29 mph    
Visibility 10 miles    
Events      
Averages and records for this station are not official NWS values.
T = Trace of Precipitation, MM = Missing Value Source: NWS Daily Summary

Daily Weather History Graph

Daily Weather History Graph

Search for Another Location

Airport or City:

Astronomy

Dec. 24, 2013 Rise Set
Actual Time 7:12 AM EST 4:23 PM EST
Civil Twilight 6:40 AM EST 4:55 PM EST
Nautical Twilight 6:05 AM EST 5:29 PM EST
Astronomical Twilight 5:32 AM EST 6:03 PM EST
Moon 11:33 PM EST (12/24) 11:00 AM EST (12/24)
Length of Visible Light 10h 14m
Length of Day
9h 11m
Waning Gibbous, 59% of the Moon is Illuminated
Dec 24
Waning Gibbous
Dec 25
Last Quarter
Jan 1
New
Jan 7
First Quarter
Jan 15
Full

Hourly Weather History & Observations

Time (EST) Temp. Windchill Dew Point Humidity Pressure Visibility Wind Dir Wind Speed Gust Speed Precip Events Conditions
12:56 AM 39.9 °F 30.5 °F 28.9 °F 65% 30.08 in 10.0 mi NNW 19.6 mph 28.8 mph 0.00 in   Overcast
1:56 AM 39.0 °F 30.3 °F 27.0 °F 62% 30.10 in 10.0 mi NNW 16.1 mph 23.0 mph N/A   Overcast
2:56 AM 37.9 °F 30.0 °F 26.1 °F 62% 30.09 in 10.0 mi North 12.7 mph - N/A   Overcast
3:56 AM 37.9 °F 30.5 °F 26.1 °F 62% 30.09 in 10.0 mi North 11.5 mph 17.3 mph N/A   Partly Cloudy
4:56 AM 37.9 °F 30.9 °F 26.1 °F 62% 30.11 in 10.0 mi NNW 10.4 mph 16.1 mph N/A   Clear
5:56 AM 37.0 °F 29.8 °F 25.0 °F 62% 30.11 in 10.0 mi NNW 10.4 mph 19.6 mph N/A   Clear
6:56 AM 36.0 °F 28.0 °F 21.9 °F 57% 30.14 in 10.0 mi North 11.5 mph - N/A   Clear
7:56 AM 35.1 °F 26.4 °F 21.0 °F 57% 30.09 in 10.0 mi North 12.7 mph - N/A   Clear
8:56 AM 35.1 °F 27.4 °F 21.0 °F 57% 30.13 in 10.0 mi North 10.4 mph - N/A   Clear
9:56 AM 34.0 °F 23.8 °F 18.0 °F 52% 30.09 in 10.0 mi North 16.1 mph 21.9 mph N/A   Clear
10:56 AM 34.0 °F 24.2 °F 17.1 °F 50% 30.10 in 10.0 mi North 15.0 mph 20.7 mph N/A   Clear
11:56 AM 35.1 °F 26.9 °F 18.0 °F 50% 30.08 in 10.0 mi NNW 11.5 mph - N/A   Clear
12:56 PM 37.9 °F 30.5 °F 17.1 °F 43% 30.05 in 10.0 mi NNW 11.5 mph 20.7 mph N/A   Clear
1:56 PM 39.0 °F 30.6 °F 18.0 °F 43% 30.04 in 10.0 mi NNW 15.0 mph - N/A   Clear
2:56 PM 39.0 °F 31.0 °F 17.1 °F 41% 30.06 in 10.0 mi North 13.8 mph 20.7 mph N/A   Clear
3:56 PM 37.0 °F 29.8 °F 16.0 °F 42% 30.08 in 10.0 mi North 10.4 mph 19.6 mph N/A   Overcast
4:56 PM 35.1 °F 28.6 °F 17.1 °F 48% 30.12 in 10.0 mi NNW 8.1 mph - N/A   Overcast
5:56 PM 35.1 °F 27.4 °F 18.0 °F 50% 30.14 in 10.0 mi NW 10.4 mph - N/A   Overcast
6:56 PM 33.1 °F 26.1 °F 21.9 °F 64% 30.17 in 10.0 mi NNW 8.1 mph - N/A   Overcast
7:56 PM 30.9 °F 25.2 °F 21.9 °F 69% 30.19 in 10.0 mi North 5.8 mph - N/A   Scattered Clouds
8:56 PM 30.9 °F 23.5 °F 21.0 °F 67% 30.21 in 10.0 mi NW 8.1 mph - N/A   Overcast
9:56 PM 30.9 °F 21.2 °F 18.0 °F 59% 30.22 in 10.0 mi NNW 12.7 mph 19.6 mph N/A   Overcast
10:56 PM 30.9 °F 20.7 °F 15.1 °F 52% 30.24 in 10.0 mi NW 13.8 mph 19.6 mph N/A   Overcast
11:56 PM 28.9 °F 19.8 °F 12.9 °F 51% 30.26 in 10.0 mi NW 10.4 mph 23.0 mph N/A   Overcast